Year,Month,Day,Hour,Minute,Value (Times are PST for temperature in C)
2009,04,06,08,11,0.00
2009,04,06,08,12,0.10
2009,04,06,08,13,0.10
2009,04,06,08,14,0.10
2009,04,06,08,15,0.10
2009,04,06,08,16,0.20
2009,04,06,08,17,0.30
2009,04,06,08,18,0.30
2009,04,06,08,19,0.40
2009,04,06,08,20,0.40
2009,04,06,08,21,0.50
2009,04,06,08,22,0.60
2009,04,06,08,23,0.60
2009,04,06,08,24,0.70
2009,04,06,08,25,0.80
2009,04,06,08,26,0.90
2009,04,06,08,27,1.00
2009,04,06,08,28,1.10
2009,04,06,08,29,1.30
2009,04,06,08,30,1.30
2009,04,06,08,31,1.40
2009,04,06,08,32,1.50
2009,04,06,08,33,1.70
2009,04,06,08,34,1.80
2009,04,06,08,35,1.80
2009,04,06,08,36,1.90
2009,04,06,08,37,2.00
2009,04,06,08,38,2.10
2009,04,06,08,39,2.10
2009,04,06,08,40,2.20
2009,04,06,08,41,2.30
2009,04,06,08,42,2.40
2009,04,06,08,43,2.50
2009,04,06,08,44,2.60
2009,04,06,08,45,2.60
2009,04,06,08,46,2.70
2009,04,06,08,47,2.80
2009,04,06,08,48,2.90
2009,04,06,08,49,3.00
2009,04,06,08,50,3.10
2009,04,06,08,51,3.20
2009,04,06,08,52,3.20
2009,04,06,08,53,3.30
2009,04,06,08,54,3.40
2009,04,06,08,55,3.50
2009,04,06,08,56,3.60
2009,04,06,08,57,3.70
2009,04,06,08,58,3.80
2009,04,06,08,59,3.90
2009,04,06,09,00,4.10
2009,04,06,09,01,4.20
2009,04,06,09,02,4.20
2009,04,06,09,03,4.30
2009,04,06,09,04,4.40
2009,04,06,09,05,4.50
2009,04,06,09,06,4.60
2009,04,06,09,07,4.60
2009,04,06,09,08,4.70
2009,04,06,09,09,4.70
2009,04,06,09,10,4.80
2009,04,06,09,11,4.90
2009,04,06,09,12,5.00
2009,04,06,09,13,5.10
2009,04,06,09,14,5.10
2009,04,06,09,15,5.20
2009,04,06,09,16,5.30
2009,04,06,09,17,5.40
2009,04,06,09,18,5.40
2009,04,06,09,19,5.50
2009,04,06,09,20,5.60
2009,04,06,09,21,5.60
2009,04,06,09,22,5.70
2009,04,06,09,23,5.70
2009,04,06,09,24,5.80
2009,04,06,09,25,5.80
2009,04,06,09,26,5.90
2009,04,06,09,27,5.90
2009,04,06,09,28,6.00
2009,04,06,09,29,6.10
2009,04,06,09,30,6.20
2009,04,06,09,31,6.20
2009,04,06,09,32,6.30
2009,04,06,09,33,6.40
2009,04,06,09,34,6.50
2009,04,06,09,35,6.60
2009,04,06,09,36,6.70
2009,04,06,09,37,6.80
2009,04,06,09,38,6.80
2009,04,06,09,39,6.90
2009,04,06,09,40,7.00
2009,04,06,09,41,7.00
2009,04,06,09,42,7.10
2009,04,06,09,43,7.10
2009,04,06,09,44,7.20
2009,04,06,09,45,7.20
2009,04,06,09,46,7.20
2009,04,06,09,47,7.20
2009,04,06,09,48,7.30
2009,04,06,09,49,7.30
2009,04,06,09,50,7.40
2009,04,06,09,51,7.40
2009,04,06,09,52,7.50
2009,04,06,09,53,7.60
2009,04,06,09,54,7.70
2009,04,06,09,55,7.80
2009,04,06,09,56,7.90
2009,04,06,09,57,8.00
2009,04,06,09,58,8.10
2009,04,06,09,59,8.20
2009,04,06,10,00,8.40
2009,04,06,10,01,8.40
2009,04,06,10,02,8.50
2009,04,06,10,03,8.50
2009,04,06,10,04,8.60
2009,04,06,10,05,8.60
2009,04,06,10,06,8.70
2009,04,06,10,07,8.80
2009,04,06,10,08,8.90
2009,04,06,10,09,9.00
2009,04,06,10,10,9.10
2009,04,06,10,11,9.20
2009,04,06,10,12,9.30
2009,04,06,10,13,9.40
2009,04,06,10,14,9.50
2009,04,06,10,15,9.60
2009,04,06,10,16,9.70
2009,04,06,10,17,9.70
2009,04,06,10,18,9.80
2009,04,06,10,19,9.80
2009,04,06,10,20,9.80
2009,04,06,10,21,9.80
2009,04,06,10,22,9.80
2009,04,06,10,23,9.80
2009,04,06,10,24,9.80
2009,04,06,10,25,9.90
2009,04,06,10,26,10.00
2009,04,06,10,27,10.00
2009,04,06,10,28,10.10
2009,04,06,10,29,10.10
2009,04,06,10,30,10.10
2009,04,06,10,31,10.10
2009,04,06,10,32,10.20
2009,04,06,10,33,10.20
2009,04,06,10,34,10.30
2009,04,06,10,35,10.30
2009,04,06,10,36,10.30
2009,04,06,10,37,10.40
2009,04,06,10,38,10.40
2009,04,06,10,39,10.40
2009,04,06,10,40,10.40
2009,04,06,10,41,10.40
2009,04,06,10,42,10.40
2009,04,06,10,43,10.40
2009,04,06,10,44,10.40
2009,04,06,10,45,10.40
2009,04,06,10,46,10.50
2009,04,06,10,47,10.50
2009,04,06,10,48,10.60
2009,04,06,10,49,10.70
2009,04,06,10,50,10.80
2009,04,06,10,51,10.90
2009,04,06,10,52,11.00
2009,04,06,10,53,11.10
2009,04,06,10,54,11.10
2009,04,06,10,55,11.20
2009,04,06,10,56,11.20
2009,04,06,10,57,11.20
2009,04,06,10,58,11.20
2009,04,06,10,59,11.20
2009,04,06,11,00,11.20
2009,04,06,11,01,11.30
2009,04,06,11,02,11.30
2009,04,06,11,03,11.30
2009,04,06,11,04,11.30
2009,04,06,11,05,11.40
2009,04,06,11,06,11.40
2009,04,06,11,07,11.50
2009,04,06,11,08,11.60
2009,04,06,11,09,11.60
2009,04,06,11,10,11.70
2009,04,06,11,11,11.70
2009,04,06,11,12,11.80
2009,04,06,11,13,11.90
2009,04,06,11,14,12.00
2009,04,06,11,15,12.10
2009,04,06,11,16,12.10
2009,04,06,11,17,12.20
2009,04,06,11,18,12.30
2009,04,06,11,19,12.40
2009,04,06,11,20,12.50
2009,04,06,11,21,12.60
2009,04,06,11,22,12.70
2009,04,06,11,23,12.80
2009,04,06,11,24,12.80
2009,04,06,11,25,12.90
2009,04,06,11,26,12.90
2009,04,06,11,27,13.00
2009,04,06,11,28,13.10
2009,04,06,11,29,13.20
2009,04,06,11,30,13.20
2009,04,06,11,31,13.30
2009,04,06,11,32,13.40
2009,04,06,11,33,13.50
2009,04,06,11,34,13.50
2009,04,06,11,35,13.60
2009,04,06,11,36,13.60
2009,04,06,11,37,13.60
2009,04,06,11,38,13.60
2009,04,06,11,39,13.60
2009,04,06,11,40,13.60
2009,04,06,11,41,13.60
2009,04,06,11,42,13.60
2009,04,06,11,43,13.70
2009,04,06,11,44,13.70
2009,04,06,11,45,13.80
2009,04,06,11,46,13.90
2009,04,06,11,47,14.00
2009,04,06,11,48,14.10
2009,04,06,11,49,14.20
2009,04,06,11,50,14.30
2009,04,06,11,51,14.40
2009,04,06,11,52,14.40
2009,04,06,11,53,14.50
2009,04,06,11,54,14.50
2009,04,06,11,55,14.60
2009,04,06,11,56,14.80
2009,04,06,11,57,14.90
2009,04,06,11,58,15.00
2009,04,06,11,59,15.00
2009,04,06,12,00,15.20
2009,04,06,12,01,15.30
2009,04,06,12,02,15.50
2009,04,06,12,03,15.60
2009,04,06,12,04,15.60
2009,04,06,12,05,15.60
2009,04,06,12,06,15.60
2009,04,06,12,07,15.60
2009,04,06,12,08,15.60
2009,04,06,12,09,15.70
2009,04,06,12,10,15.70
2009,04,06,12,11,15.70
2009,04,06,12,12,15.70
2009,04,06,12,13,15.80
2009,04,06,12,14,15.80
2009,04,06,12,15,15.80
2009,04,06,12,16,15.90
2009,04,06,12,17,15.90
2009,04,06,12,18,16.00
2009,04,06,12,19,16.00
2009,04,06,12,20,16.00
2009,04,06,12,21,16.00
2009,04,06,12,22,16.10
2009,04,06,12,23,16.20
2009,04,06,12,24,16.20
2009,04,06,12,25,16.30
2009,04,06,12,26,16.40
2009,04,06,12,27,16.50
2009,04,06,12,28,16.60
2009,04,06,12,29,16.70
2009,04,06,12,30,16.80
2009,04,06,12,31,16.90
2009,04,06,12,32,16.90
2009,04,06,12,33,16.90
2009,04,06,12,34,17.00
2009,04,06,12,35,17.10
2009,04,06,12,36,17.20
2009,04,06,12,37,17.30
2009,04,06,12,38,17.40
2009,04,06,12,39,17.40
2009,04,06,12,40,17.40
2009,04,06,12,41,17.30
2009,04,06,12,42,17.30
2009,04,06,12,43,17.30
2009,04,06,12,44,17.20
2009,04,06,12,45,17.20
2009,04,06,12,46,17.20
2009,04,06,12,47,17.20
2009,04,06,12,48,17.20
2009,04,06,12,49,17.30
2009,04,06,12,50,17.30
2009,04,06,12,51,17.30
2009,04,06,12,52,17.30
2009,04,06,12,53,17.40
2009,04,06,12,54,17.40
2009,04,06,12,55,17.50
2009,04,06,12,56,17.60
2009,04,06,12,57,17.60
2009,04,06,12,58,17.70
2009,04,06,12,59,17.70
2009,04,06,13,00,17.70
2009,04,06,13,01,17.70
2009,04,06,13,02,17.70
2009,04,06,13,03,17.70
2009,04,06,13,04,17.70
2009,04,06,13,05,17.70
2009,04,06,13,06,17.80
2009,04,06,13,07,17.80
2009,04,06,13,08,17.90
2009,04,06,13,09,18.00
2009,04,06,13,10,18.10
2009,04,06,13,11,18.20
2009,04,06,13,12,18.20
2009,04,06,13,13,18.30
2009,04,06,13,14,18.40
2009,04,06,13,15,18.30
2009,04,06,13,16,18.30
2009,04,06,13,17,18.40
2009,04,06,13,18,18.50
2009,04,06,13,19,18.60
2009,04,06,13,20,18.70
2009,04,06,13,21,18.70
2009,04,06,13,22,18.80
2009,04,06,13,23,18.80
2009,04,06,13,24,18.70
2009,04,06,13,25,18.60
2009,04,06,13,26,18.60
2009,04,06,13,27,18.60
2009,04,06,13,28,18.60
2009,04,06,13,29,18.60
2009,04,06,13,30,18.60
2009,04,06,13,31,18.60
2009,04,06,13,32,18.70
2009,04,06,13,33,18.80
2009,04,06,13,34,18.90
2009,04,06,13,35,19.00
2009,04,06,13,36,19.10
2009,04,06,13,37,19.20
2009,04,06,13,38,19.30
2009,04,06,13,39,19.30
2009,04,06,13,40,19.30
2009,04,06,13,41,19.40
2009,04,06,13,42,19.40
2009,04,06,13,43,19.40
2009,04,06,13,44,19.40
2009,04,06,13,45,19.40
2009,04,06,13,46,19.50
2009,04,06,13,47,19.60
2009,04,06,13,48,19.60
2009,04,06,13,49,19.80
2009,04,06,13,50,19.80
2009,04,06,13,51,19.90
2009,04,06,13,52,19.90
2009,04,06,13,53,20.00
2009,04,06,13,54,20.00
2009,04,06,13,55,19.90
2009,04,06,13,56,19.80
2009,04,06,13,57,19.80
2009,04,06,13,58,19.80
2009,04,06,13,59,19.80
2009,04,06,14,00,19.80
2009,04,06,14,01,19.90
2009,04,06,14,02,19.90
2009,04,06,14,03,20.00
2009,04,06,14,04,19.90
2009,04,06,14,05,19.90
2009,04,06,14,06,19.90
2009,04,06,14,07,19.80
2009,04,06,14,08,19.80
2009,04,06,14,09,19.90
2009,04,06,14,10,20.00
2009,04,06,14,11,20.10
2009,04,06,14,12,20.20
2009,04,06,14,13,20.30
2009,04,06,14,14,20.30
2009,04,06,14,15,20.30
2009,04,06,14,16,20.30
2009,04,06,14,17,20.20
2009,04,06,14,18,20.20
2009,04,06,14,19,20.20
2009,04,06,14,20,20.10
2009,04,06,14,21,20.20
2009,04,06,14,22,20.20
2009,04,06,14,23,20.20
2009,04,06,14,24,20.30
2009,04,06,14,25,20.30
2009,04,06,14,26,20.30
2009,04,06,14,27,20.30
2009,04,06,14,28,20.30
2009,04,06,14,29,20.40
2009,04,06,14,30,20.40
2009,04,06,14,31,20.50
2009,04,06,14,32,20.60
2009,04,06,14,33,20.60
2009,04,06,14,34,20.50
2009,04,06,14,35,20.40
2009,04,06,14,36,20.30
2009,04,06,14,37,20.20
2009,04,06,14,38,20.10
2009,04,06,14,39,19.90
2009,04,06,14,40,19.80
2009,04,06,14,41,19.80
2009,04,06,14,42,19.90
2009,04,06,14,43,20.00
2009,04,06,14,44,20.10
2009,04,06,14,45,20.20
2009,04,06,14,46,20.20
2009,04,06,14,47,20.20
2009,04,06,14,48,20.20
2009,04,06,14,49,20.20
2009,04,06,14,50,20.20
2009,04,06,14,51,20.30
2009,04,06,14,52,20.40
2009,04,06,14,53,20.50
2009,04,06,14,54,20.60
2009,04,06,14,55,20.70
2009,04,06,14,56,20.60
2009,04,06,14,57,20.40
2009,04,06,14,58,20.30
2009,04,06,14,59,20.30
2009,04,06,15,00,20.30
2009,04,06,15,01,20.40
2009,04,06,15,02,20.40
2009,04,06,15,03,20.40
2009,04,06,15,04,20.50
2009,04,06,15,05,20.60
2009,04,06,15,06,20.70
2009,04,06,15,07,20.70
2009,04,06,15,08,20.60
2009,04,06,15,09,20.50
2009,04,06,15,10,20.40
2009,04,06,15,11,20.30
2009,04,06,15,12,20.20
2009,04,06,15,13,20.20
2009,04,06,15,14,20.20
2009,04,06,15,15,20.30
2009,04,06,15,16,20.30
2009,04,06,15,17,20.30
2009,04,06,15,18,20.40
2009,04,06,15,19,20.50
2009,04,06,15,20,20.60
2009,04,06,15,21,20.70
2009,04,06,15,22,20.60
2009,04,06,15,23,20.60
2009,04,06,15,24,20.60
2009,04,06,15,25,20.60
2009,04,06,15,26,20.70
2009,04,06,15,27,20.60
2009,04,06,15,28,20.60
2009,04,06,15,29,20.60
2009,04,06,15,30,20.60
2009,04,06,15,31,20.70
2009,04,06,15,32,20.80
2009,04,06,15,33,20.90
2009,04,06,15,34,20.90
2009,04,06,15,35,21.00
2009,04,06,15,36,21.00
2009,04,06,15,37,21.00
2009,04,06,15,38,21.00
2009,04,06,15,39,21.00
2009,04,06,15,40,21.00
2009,04,06,15,41,21.00
2009,04,06,15,42,20.90
2009,04,06,15,43,20.80
2009,04,06,15,44,20.70
2009,04,06,15,45,20.60
2009,04,06,15,46,20.50
2009,04,06,15,47,20.40
2009,04,06,15,48,20.30
2009,04,06,15,49,20.30
2009,04,06,15,50,20.40
2009,04,06,15,51,20.40
2009,04,06,15,52,20.50
2009,04,06,15,53,20.50
2009,04,06,15,54,20.50
2009,04,06,15,55,20.50
2009,04,06,15,56,20.40
2009,04,06,15,57,20.30
2009,04,06,15,58,20.20
2009,04,06,15,59,20.20
2009,04,06,16,00,20.20
2009,04,06,16,01,20.20
2009,04,06,16,02,20.30
2009,04,06,16,03,20.40
2009,04,06,16,04,20.50
2009,04,06,16,05,20.70
2009,04,06,16,06,20.80
2009,04,06,16,07,20.80
2009,04,06,16,08,20.80
2009,04,06,16,09,20.80
2009,04,06,16,10,20.80
2009,04,06,16,11,20.80
2009,04,06,16,12,20.80
2009,04,06,16,13,20.90
2009,04,06,16,14,20.90
2009,04,06,16,15,21.00
2009,04,06,16,16,21.10
2009,04,06,16,17,21.10
2009,04,06,16,18,21.10
2009,04,06,16,19,21.20
2009,04,06,16,20,21.30
2009,04,06,16,21,21.20
2009,04,06,16,22,21.20
2009,04,06,16,23,21.20
2009,04,06,16,24,21.30
2009,04,06,16,25,21.30
2009,04,06,16,26,21.30
2009,04,06,16,27,21.30
2009,04,06,16,28,21.30
2009,04,06,16,29,21.30
2009,04,06,16,30,21.30
2009,04,06,16,31,21.40
2009,04,06,16,32,21.40
2009,04,06,16,33,21.40
2009,04,06,16,34,21.50
2009,04,06,16,35,21.50
2009,04,06,16,36,21.50
2009,04,06,16,37,21.40
2009,04,06,16,38,21.30
2009,04,06,16,39,21.30
2009,04,06,16,40,21.30
2009,04,06,16,41,21.30
2009,04,06,16,42,21.20
2009,04,06,16,43,21.20
2009,04,06,16,44,21.10
2009,04,06,16,45,21.10
2009,04,06,16,46,21.00
2009,04,06,16,47,20.90
2009,04,06,16,48,20.80
2009,04,06,16,49,20.80
2009,04,06,16,50,20.60
2009,04,06,16,51,20.60
2009,04,06,16,52,20.60
2009,04,06,16,53,20.60
2009,04,06,16,54,20.50
2009,04,06,16,55,20.40
2009,04,06,16,56,20.30
2009,04,06,16,57,20.20
2009,04,06,16,58,20.10
2009,04,06,16,59,20.10
2009,04,06,17,00,20.10
2009,04,06,17,01,20.10
2009,04,06,17,02,20.20
2009,04,06,17,03,20.20
2009,04,06,17,04,20.20
2009,04,06,17,05,20.20
2009,04,06,17,06,20.20
2009,04,06,17,07,20.10
2009,04,06,17,08,20.10
2009,04,06,17,09,20.10
2009,04,06,17,10,20.10
2009,04,06,17,11,20.10
2009,04,06,17,12,20.00
2009,04,06,17,13,20.00
2009,04,06,17,14,20.10
2009,04,06,17,15,20.10
2009,04,06,17,16,20.10
2009,04,06,17,17,20.00
2009,04,06,17,18,20.00
2009,04,06,17,19,19.90
2009,04,06,17,20,19.90
2009,04,06,17,21,19.90
2009,04,06,17,22,20.00
2009,04,06,17,23,20.00
2009,04,06,17,24,20.00
2009,04,06,17,25,20.00
2009,04,06,17,26,19.90
2009,04,06,17,27,19.80
2009,04,06,17,28,19.80
2009,04,06,17,29,19.70
2009,04,06,17,30,19.70
2009,04,06,17,31,19.70
2009,04,06,17,32,19.80
2009,04,06,17,33,19.80
2009,04,06,17,34,19.80
2009,04,06,17,35,19.80
2009,04,06,17,36,19.80
2009,04,06,17,37,19.80
2009,04,06,17,38,19.70
2009,04,06,17,39,19.70
2009,04,06,17,40,19.70
2009,04,06,17,41,19.60
2009,04,06,17,42,19.50
2009,04,06,17,43,19.40
2009,04,06,17,44,19.30
2009,04,06,17,45,19.30
2009,04,06,17,46,19.30
2009,04,06,17,47,19.30
2009,04,06,17,48,19.30
2009,04,06,17,49,19.30
2009,04,06,17,50,19.30
2009,04,06,17,51,19.30
2009,04,06,17,52,19.30
2009,04,06,17,53,19.30
2009,04,06,17,54,19.30
